{"data":{"norad_id":87845,"epoch":"2026-05-22T00:16:55.650144Z","epoch_age_seconds":333370,"freshness":"STALE","line1":"1 87845U          26142.01175521  .00001375  00000+0  26040-2 0  9998","line2":"2 87845  98.8727  73.2815 0574469 244.6387 109.4183 12.89679515585861","mean_motion":12.89679515,"eccentricity":0.0574469,"inclination_deg":98.8727,"raan_deg":73.2815,"arg_perigee_deg":244.6387,"mean_anomaly_deg":109.4183,"bstar":0.002604,"rev_number":58586,"period_min":111.65564648051,"perigee_km":861.55015563913,"apogee_km":1744.041728923,"semimajor_km":7680.9329422811,"source":"CELESTRAK","updated_at":"2026-05-25T13:38:11.680460Z"}}